Location: Starhoo Observatory
(41.8578°N, 70.9669°W)
Time: 04:43:34
(UTC-04:00)

ISS - Visible Passes

Search period start: 25 October 2014 00:00
Search period end: 03 November 2014 23:00
Orbit: 412 x 416 km, 51.6° (Epoch: 25 October)

Date Brightness Start Highest point End Pass type
(mag) Time Alt. Az. Time Alt. Az. Time Alt. Az.
25 Oct -3.3 18:51:39 10° NW 18:55:00 87° SW 18:57:21 18° SE visible
26 Oct -0.7 19:39:49 10° W 19:42:10 18° SW 19:43:41 14° SSW visible
27 Oct -1.5 18:50:04 10° WNW 18:53:04 31° SW 18:56:03 10° SSE visible
29 Oct 0.0 18:49:26 10° WSW 18:50:46 12° SW 18:52:05 10° SSW visible
